Regional Weather Roundup
Issued by NWS

Home | Current Version | Previous Version | Text Only | Print | Product List | Glossary Off
Versions: 1 2 3 4 5 6 7 8 9 10 11 12 13 14 15 16 17 18 19 20 21 22 23 24 25 26 27 28 29 30 31 32 33 34 35 36 37 38 39 40 41 42 43 44 45 46 47 48 49 50

336
ASUS43 KOAX 090302
RWRNE

WEATHER ROUNDUP FOR NEBRASKA
NATIONAL WEATHER SERVICE OMAHA NE
900 PM CST MON FEB 08 2016

NOTES: SATELLITE DATA IS BEING USED TO AUGMENT CLOUD COVER ABOVE
       12000 FEET.
       "FAIR" INDICATES FEW OR NO CLOUDS BELOW 12,000 FEET WITH NO
       SIGNIFICANT WEATHER AND/OR OBSTRUCTIONS TO VISIBILITY.

  * THESE STATIONS DO NOT REPORT WEATHER SUCH AS RAIN...SNOW OR FOG.

NEZ001>004-019>022-054>056-090400-
NEBRASKA PANHANDLE

CITY           SKY/WX    TMP DP  RH WIND       PRES   REMARKS
SCOTTSBLUFF    CLEAR     33  27  78 NW9       30.28F WCI  25
ALLIANCE       CLOUDY    32  26  78 NW7       30.24F WCI  26
CHADRON        CLOUDY    33  24  69 CALM      30.25F
SIDNEY         CLOUDY    39  28  64 NW20      30.26S WCI  29
$$

NEZ057>060-069>072-079>082-090400-
SOUTHWEST NEBRASKA

CITY           SKY/WX    TMP DP  RH WIND       PRES   REMARKS
NORTH PLATTE   CLEAR     30  19  63 W13       30.22S WCI  20
IMPERIAL       PTCLDY    28  19  69 W6        30.26R WCI  22
MCCOOK         CLOUDY    32  20  61 W12       30.25S WCI  23
$$

NEZ005>010-023>029-035>040-094-090400-
NORTH CENTRAL NEBRASKA

CITY           SKY/WX    TMP DP  RH WIND       PRES   REMARKS
VALENTINE      MOCLDY    28  16  60 NW8       30.20F WCI  20
AINSWORTH      MOCLDY    31  17  55 NW13      30.18S WCI  21
BROKEN BOW     CLEAR     27  15  61 NW15      30.17S WCI  15
ORD            CLEAR     29  17  61 NW14      30.15F WCI  18
$$

NEZ041-046>049-061>064-073>077-083>087-090400-
SOUTH CENTRAL NEBRASKA

CITY           SKY/WX    TMP DP  RH WIND       PRES   REMARKS
GRAND ISLAND   CLEAR     23  15  71 W7        30.17F WCI  15
HASTINGS       PTCLDY    24  15  68 NW9       30.17F WCI  14
$$

NEZ011>018-030>034-042>045-090400-
NORTHEAST NEBRASKA

CITY           SKY/WX    TMP DP  RH WIND       PRES   REMARKS
NORFOLK        CLEAR     31  20  63 NW16G24   30.10S WCI  20
BLAIR          CLOUDY    26  19  74 NW7       30.08S WCI  18
COLUMBUS *     MOCLDY    28  16  59 NW13      30.12F WCI  18
FREMONT        PTCLDY    29  19  68 NW8       30.11S WCI  21
TEKAMAH        PTCLDY    27  18  69 N14       30.10R WCI  16
$$

NEZ050>053-065>068-078-088>093-090400-
SOUTHEAST NEBRASKA

CITY           SKY/WX    TMP DP  RH WIND       PRES   REMARKS
LINCOLN        CLOUDY    32  21  64 NW16      30.13F WCI  21
OMAHA EPPLEY   CLOUDY    24  18  77 N6        30.10S WCI  17
BEATRICE       CLOUDY    32  24  71 NW13      30.14S WCI  22
FALLS CITY     CLOUDY    28  20  71 NW12      30.10F WCI  18
NEBRASKA CITY  MOCLDY    28  20  72 NW13      30.10S WCI  17
$$

NEZ044-045-051>053-067-090400-
OMAHA AREA

CITY           SKY/WX    TMP DP  RH WIND       PRES   REMARKS
OMAHA EPPLEY   CLOUDY    24  18  77 N6        30.10S WCI  17
BLAIR          CLOUDY    26  19  74 NW7       30.08S WCI  18
FREMONT        PTCLDY    29  19  68 NW8       30.11S WCI  21
OFFUTT AFB     CLEAR     28  18  66 NW10      30.09S WCI  18
WAHOO          FAIR      31  21  66 NW14G21   30.10S WCI  21
$$




USA.gov is the U.S. government's official web portal to all federal, state and local government web resources and services.